TIANMU-1 09

Last updated on Thu Nov 21 2024 00:02:20 GMT+0000 (Coordinated Universal Time)

1 57401U 23101C 24325.59222160 .00010133 00000+0 46220-3 0 9991 2 57401 97.3367 18.1325 0006836 17.1731 342.9735 15.20798029 74161
UTC large
Height (km)
Speed (km/s)
/
Latitude / Longitude
Inclination (degrees)
Orbital Period (minutes)
Azimuth
Elevation
Range (km)
Doppler Factor

Next 0 passes for location: London (51.5072 / 0.1276)

Sorry there are no passes over London.